Simultaneous Nadir Overpasses (SNOs) Predictions

Prediction of SNOs between AQUA and NOAA-19 Satellite Orbit:

Table of predicted SNOs for the next 14.0 days since TLE Epoch: 1/26/2017
Index Date (AQUA) Time (AQUA) Lat,Lon (AQUA) SZA (AQUA ) Date (NOAA-19) Time (NOAA-19) Lat,Lon (NOAA-19) SZA (NOAA-19 ) Distance(km) Time Diff (sec)
1 01/28/2017 14:25:31 -80.97, 102.77 78.59 01/28/2017 14:25:52 -80.95, 102.90 78.62 2.80 21
2 01/30/2017 19:09:49 -80.95, 31.90 79.21 01/30/2017 19:08:46 -80.96, 31.95 79.18 1.00 63
3 01/30/2017 19:59:15 80.95,-160.46 100.79 01/30/2017 19:59:42 80.95,-160.37 100.77 1.71 27
4 02/02/2017 00:43:34 80.97, 128.27 100.21 02/02/2017 00:42:37 80.96, 128.45 100.21 3.26 57
5 02/02/2017 01:33:00 -80.96, -64.03 79.81 02/02/2017 01:33:39 -80.95, -63.89 79.85 2.53 39
6 02/04/2017 06:17:18 -80.95,-134.96 80.47 02/04/2017 06:16:33 -80.96,-134.92 80.45 1.03 45
7 02/04/2017 07:06:45 80.95, 32.63 99.53 02/04/2017 07:07:31 80.95, 32.77 99.49 2.38 46
8 02/06/2017 11:51:03 80.95, -38.35 98.85 02/06/2017 11:50:26 80.96, -38.46 98.89 2.25 37
9 02/06/2017 12:40:30 -80.97, 129.03 81.12 02/06/2017 12:41:27 -80.95, 129.17 81.17 2.81 57
10 02/08/2017 17:24:48 -80.96, 58.03 81.82 02/08/2017 17:24:21 -80.96, 58.08 81.82 1.09 27




NCC Satellite Simultaneous Nadir Overpasses (SNOs) Prediction Service
